Voltar ao catálogo

CZ-3A DEB

AtivoHEO
NORAD 35549·DEBRIS·🇨🇳 China

Lançado Feb 2, 2007 de Xichang Satellite Launch Center

Loading…

Próximas Passagens (próximas 24 horas)

TLE

AtualizadoSource: Space-Track

Época: Sep 8, 2026, 07:24 UTC

1 35549U 07003H   26251.30900778  .00134051  00000-0  14175-1 0  9999
2 35549  24.1115 321.0914 5060579 268.9906  35.3023  5.55298297176501

Acompanhe CZ-3A DEB em tempo real com AllMySat

Download on the App Store